Weather History for Dublin, GA

Change the Weather History Date:

Saturday, June 7, 2014

  Actual Average Record
Temperature  
Mean Temperature 76 °F -  
Max Temperature 87 °F 89 °F 104 °F (1985)
Min Temperature 66 °F 62 °F 50 °F (1976)
Cooling Degree Days 12    
Growing Degree Days 26 (Base 50)    
Moisture  
Dew Point 70 °F    
Average Humidity 82    
Maximum Humidity 100    
Minimum Humidity 55    
Precipitation  
Precipitation 0.00 in - - ()
Sea Level Pressure  
Sea Level Pressure 29.96 in    
Wind  
Wind Speed 3 mph (West)    
Max Wind Speed 10 mph    
Max Gust Speed -    
Visibility 10 miles    
Events      
Averages and records for this station are not official NWS values.
T = Trace of Precipitation, MM = Missing Value Source: NWS Daily Summary

Daily Weather History Graph

Daily Weather History Graph

Search for Another Location

Airport:

Trip Planner

Search our weather history database for the weather conditions in past years. The results will help you decide how hot, cold, wet, or windy it might be!

Date:

Astronomy

Jun. 07, 2014 Rise Set
Actual Time 6:24 AM EDT 8:37 PM EDT
Civil Twilight 5:55 AM EDT 9:06 PM EDT
Nautical Twilight 5:21 AM EDT 9:40 PM EDT
Astronomical Twilight 4:43 AM EDT 10:18 PM EDT
Moon 3:11 PM EDT (6/7) 2:26 AM EDT (6/7)
Length of Visible Light 15h 10m
Length of Day
14h 13m
Waxing Gibbous, 67% of the Moon is Illuminated
Jun 7
Waxing Gibbous
Jun 13
Full
Jun 19
Last Quarter
Jun 27
New
Jul 5
First Quarter

Hourly Weather History & Observations

Time (EDT) Temp. Heat Index Dew Point Humidity Pressure Visibility Wind Dir Wind Speed Gust Speed Precip Events Conditions
12:15 AM 71.6 °F - 68.0 °F 88% 29.98 in 10.0 mi WSW 3.5 mph - N/A   Clear
12:35 AM 69.8 °F - 68.0 °F 94% 29.96 in 10.0 mi SW 3.5 mph - N/A   Clear
12:55 AM 69.8 °F - 68.0 °F 94% 29.94 in 10.0 mi South 5.8 mph - N/A   Clear
1:15 AM 69.8 °F - 68.0 °F 94% 29.92 in 10.0 mi South 6.9 mph - N/A   Clear
1:35 AM 69.8 °F - 68.0 °F 94% 29.88 in 10.0 mi SSE 6.9 mph - N/A   Clear
1:55 AM 69.8 °F - 68.0 °F 94% 29.91 in 10.0 mi West 3.5 mph - N/A   Clear
2:15 AM 69.8 °F - 68.0 °F 94% 29.92 in 10.0 mi Calm Calm - N/A   Clear
2:35 AM 68.0 °F - 68.0 °F 100% 29.92 in 10.0 mi Calm Calm - N/A   Clear
2:55 AM 68.0 °F - 66.2 °F 94% 29.91 in 10.0 mi Calm Calm - N/A   Clear
3:15 AM 68.0 °F - 66.2 °F 94% 29.91 in 10.0 mi Calm Calm - N/A   Clear
3:35 AM 68.0 °F - 68.0 °F 100% 29.92 in 10.0 mi Calm Calm - N/A   Clear
3:55 AM 68.0 °F - 66.2 °F 94% 29.93 in 10.0 mi Calm Calm - N/A   Clear
4:15 AM 66.2 °F - 66.2 °F 100% 29.93 in 10.0 mi Calm Calm - N/A   Clear
4:35 AM 66.2 °F - 66.2 °F 100% 29.94 in 10.0 mi Calm Calm - N/A   Clear
4:55 AM 68.0 °F - 66.2 °F 94% 29.94 in 10.0 mi Calm Calm - N/A   Clear
5:15 AM 66.2 °F - 66.2 °F 100% 29.94 in 10.0 mi Calm Calm - N/A   Clear
5:35 AM 68.0 °F - 66.2 °F 94% 29.94 in 10.0 mi Calm Calm - N/A   Scattered Clouds
5:55 AM 68.0 °F - 66.2 °F 94% 29.94 in 10.0 mi Calm Calm - N/A   Clear
6:15 AM 68.0 °F - 66.2 °F 94% 29.95 in 10.0 mi NW 3.5 mph - N/A   Clear
6:35 AM 66.2 °F - 64.4 °F 94% 29.96 in 10.0 mi Calm Calm - N/A   Clear
6:55 AM 66.2 °F - 66.2 °F 100% 29.97 in 10.0 mi WNW 3.5 mph - N/A   Clear
7:15 AM 68.0 °F - 66.2 °F 94% 29.98 in 10.0 mi WNW 4.6 mph - N/A   Clear
7:35 AM 69.8 °F - 68.0 °F 94% 29.98 in 10.0 mi WNW 3.5 mph - N/A   Scattered Clouds
7:55 AM 69.8 °F - 68.0 °F 94% 29.99 in 10.0 mi Calm Calm - N/A   Scattered Clouds
8:15 AM 69.8 °F - 68.0 °F 94% 30.00 in 10.0 mi WNW 4.6 mph - N/A   Clear
8:35 AM 69.8 °F - 68.0 °F 94% 30.01 in 10.0 mi NW 4.6 mph - N/A   Clear
8:55 AM 71.6 °F - 68.0 °F 88% 30.01 in 10.0 mi West 3.5 mph - N/A   Clear
9:35 AM 71.6 °F - 68.0 °F 88% 30.01 in 10.0 mi WSW 5.8 mph - N/A   Mostly Cloudy
9:55 AM 71.6 °F - 68.0 °F 88% 30.01 in 10.0 mi West 5.8 mph - N/A   Overcast
10:15 AM 73.4 °F - 69.8 °F 88% 30.00 in 10.0 mi WSW 4.6 mph - N/A   Mostly Cloudy
10:35 AM 73.4 °F - 69.8 °F 88% 30.01 in 10.0 mi West 8.1 mph - N/A   Mostly Cloudy
10:55 AM 73.4 °F - 69.8 °F 88% 30.02 in 10.0 mi West 6.9 mph - N/A   Overcast
11:15 AM 73.4 °F - 69.8 °F 88% 30.02 in 10.0 mi West 6.9 mph - N/A   Overcast
11:35 AM 75.2 °F - 69.8 °F 83% 30.01 in 10.0 mi SW 4.6 mph - N/A   Mostly Cloudy
11:55 AM 77.0 °F - 69.8 °F 78% 30.01 in 10.0 mi WNW 4.6 mph - N/A   Scattered Clouds
12:15 PM 78.8 °F - 71.6 °F 78% 30.01 in 10.0 mi West 5.8 mph - N/A   Clear
12:35 PM 78.8 °F - 71.6 °F 78% 30.01 in 10.0 mi SW 3.5 mph - N/A   Clear
1:15 PM 82.4 °F 87.2 °F 71.6 °F 70% 29.99 in 10.0 mi WNW 3.5 mph - N/A   Clear
1:35 PM 82.4 °F 87.2 °F 71.6 °F 70% 29.99 in 10.0 mi NNW 5.8 mph - N/A   Clear
1:55 PM 84.2 °F 89.6 °F 71.6 °F 66% 29.98 in 10.0 mi NNW 10.4 mph - N/A   Scattered Clouds
2:15 PM 84.2 °F 89.6 °F 71.6 °F 66% 29.97 in 10.0 mi West 4.6 mph - N/A   Mostly Cloudy
2:35 PM 84.2 °F 88.4 °F 69.8 °F 62% 29.97 in 10.0 mi NNW 4.6 mph - N/A   Mostly Cloudy
2:55 PM 86.0 °F 90.4 °F 69.8 °F 58% 29.95 in 10.0 mi North 5.8 mph - N/A   Scattered Clouds
3:15 PM 86.0 °F 90.4 °F 69.8 °F 58% 29.95 in 10.0 mi Calm Calm - N/A   Clear
3:35 PM 86.0 °F 90.4 °F 69.8 °F 58% 29.94 in 10.0 mi WNW 3.5 mph - N/A   Mostly Cloudy
3:55 PM 87.8 °F 92.6 °F 69.8 °F 55% 29.94 in 10.0 mi WNW 6.9 mph - N/A   Scattered Clouds
4:15 PM 86.0 °F 90.4 °F 69.8 °F 58% 29.94 in 10.0 mi WNW 3.5 mph - N/A   Mostly Cloudy
4:35 PM 86.0 °F 90.4 °F 69.8 °F 58% 29.94 in 10.0 mi Calm Calm - N/A   Scattered Clouds
4:55 PM 86.0 °F 90.4 °F 69.8 °F 58% 29.93 in 10.0 mi WSW 3.5 mph - N/A   Scattered Clouds
5:15 PM 86.0 °F 91.8 °F 71.6 °F 62% 29.93 in 10.0 mi WSW 8.1 mph - N/A   Scattered Clouds
5:35 PM 86.0 °F 90.4 °F 69.8 °F 58% 29.93 in 10.0 mi West 5.8 mph - N/A   Scattered Clouds
5:55 PM 86.0 °F 90.4 °F 69.8 °F 58% 29.93 in 10.0 mi WSW 6.9 mph - N/A   Scattered Clouds
6:15 PM 86.0 °F 90.4 °F 69.8 °F 58% 29.93 in 10.0 mi WNW 5.8 mph - N/A   Scattered Clouds
6:35 PM 86.0 °F 90.4 °F 69.8 °F 58% 29.93 in 10.0 mi West 4.6 mph - N/A   Clear
6:55 PM 84.2 °F 88.4 °F 69.8 °F 62% 29.92 in 10.0 mi West 4.6 mph - N/A   Clear
7:15 PM 84.2 °F 89.6 °F 71.6 °F 66% 29.93 in 10.0 mi Calm Calm - N/A   Clear
7:35 PM 82.4 °F 87.2 °F 71.6 °F 70% 29.93 in 10.0 mi Calm Calm - N/A   Clear
7:55 PM 82.4 °F 87.2 °F 71.6 °F 70% 29.93 in 10.0 mi Calm Calm - N/A   Clear
8:15 PM 80.6 °F 85.4 °F 73.4 °F 79% 29.93 in 10.0 mi Calm Calm - N/A   Clear
8:35 PM 78.8 °F - 73.4 °F 83% 29.94 in 10.0 mi Calm Calm - N/A   Clear
8:55 PM 78.8 °F - 73.4 °F 83% 29.95 in 10.0 mi Calm Calm - N/A   Clear
9:15 PM 77.0 °F - 73.4 °F 89% 29.95 in 10.0 mi SW 5.8 mph - N/A   Clear
9:35 PM 77.0 °F - 73.4 °F 89% 29.96 in 10.0 mi Calm Calm - N/A   Clear
9:55 PM 77.0 °F - 73.4 °F 89% 29.97 in 10.0 mi South 3.5 mph - N/A   Clear
10:15 PM 77.0 °F - 73.4 °F 89% 29.97 in 10.0 mi South 3.5 mph - N/A   Scattered Clouds
10:35 PM 77.0 °F - 73.4 °F 89% 29.96 in 10.0 mi SSW 3.5 mph - N/A   Mostly Cloudy
10:55 PM 77.0 °F - 73.4 °F 89% 29.97 in 10.0 mi SW 4.6 mph - N/A   Overcast
11:15 PM 75.2 °F - 71.6 °F 89% 29.97 in 10.0 mi Calm Calm - N/A   Scattered Clouds
11:35 PM 75.2 °F - 73.4 °F 94% 29.98 in 10.0 mi East 5.8 mph - N/A   Scattered Clouds
11:55 PM 77.0 °F - 71.6 °F 83% 29.98 in 10.0 mi SSW 3.5 mph - N/A   Overcast